| time (UTC) | temp C | wind direction | speed KPH | gust KPH | rain 1hr cm | rain 24hr cm | rain mn cm | humidity % | barometer mb |
| 20260506070755 | 24 | 127 | 4.8 | 14.5 | 0.00 | 0.00 | 0.00 | 1 | 1008.1 |
| 20260506070255 | 24 | 189 | 4.8 | 16.1 | 0.00 | 0.00 | 0.00 | 1 | 1008.0 |
| 20260506062254 | 24 | 164 | 3.2 | 11.3 | 0.00 | 0.00 | 0.00 | 1 | 1008.0 |
| 20260506061752 | 24 | 161 | 3.2 | 8.0 | 0.00 | 0.00 | 0.00 | 1 | 1008.0 |
| 20260506061256 | 24 | 182 | 3.2 | 11.3 | 0.00 | 0.00 | 0.00 | 1 | 1008.1 |
| 20260506061252 | 24 | 160 | 3.2 | 9.7 | 0.00 | 0.00 | 0.00 | 1 | 1008.1 |
| 20260506060253 | 24 | 221 | 3.2 | 11.3 | 0.00 | 0.00 | 0.00 | 1 | 1008.0 |
| 20260506050744 | 24 | 153 | 3.2 | 8.0 | 0.00 | 0.00 | 0.00 | 1 | 1007.7 |
| 20260506050244 | 24 | 192 | 3.2 | 11.3 | 0.00 | 0.00 | 0.00 | 1 | 1007.5 |
| 20260506044743 | 24 | 141 | 4.8 | 12.9 | 0.00 | 0.00 | 0.00 | 1 | 1007.4 |
| 20260506044244 | 24 | 149 | 4.8 | 12.9 | 0.00 | 0.00 | 0.00 | 1 | 1007.3 |
| 20260506043742 | 24 | 236 | 4.8 | 12.9 | 0.00 | 0.00 | 0.00 | 1 | 1007.3 |
| 20260506043240 | 24 | 175 | 1.6 | 9.7 | 0.00 | 0.00 | 0.00 | 1 | 1007.4 |
| 20260506042740 | 24 | 188 | 0.0 | 4.8 | 0.00 | 0.00 | 0.00 | 1 | 1007.4 |
| 20260506042239 | 24 | 171 | 0.0 | 6.4 | 0.00 | 0.00 | 0.00 | 1 | 1007.4 |
| 20260506041739 | 24 | 171 | 1.6 | 6.4 | 0.00 | 0.00 | 0.00 | 1 | 1007.4 |
| 20260506041238 | 24 | 176 | 1.6 | 6.4 | 0.00 | 0.00 | 0.00 | 1 | 1007.3 |
| 20260506040742 | 24 | 149 | 3.2 | 11.3 | 0.00 | 0.00 | 0.00 | 1 | 1007.1 |
| 20260506040738 | 24 | 191 | 3.2 | 11.3 | 0.00 | 0.00 | 0.00 | 1 | 1007.2 |
| 20260506035738 | 24 | 183 | 3.2 | 8.0 | 0.00 | 0.00 | 0.00 | 1 | 1007.0 |
| 20260506035238 | 24 | 170 | 3.2 | 8.0 | 0.00 | 0.00 | 0.00 | 1 | 1006.9 |
| 20260506034738 | 24 | 174 | 3.2 | 9.7 | 0.00 | 0.00 | 0.00 | 1 | 1006.9 |
| 20260506034238 | 24 | 184 | 4.8 | 11.3 | 0.00 | 0.00 | 0.00 | 1 | 1006.8 |
| 20260506033736 | 24 | 219 | 3.2 | 11.3 | 0.00 | 0.00 | 0.00 | 1 | 1006.7 |
| 20260506033235 | 24 | 159 | 3.2 | 9.7 | 0.00 | 0.00 | 0.00 | 1 | 1006.7 |
| 20260506032735 | 24 | 148 | 4.8 | 9.7 | 0.00 | 0.00 | 0.00 | 1 | 1006.6 |
| 20260506032236 | 24 | 148 | 4.8 | 9.7 | 0.00 | 0.00 | 0.00 | 1 | 1006.7 |
| 20260506031736 | 24 | 162 | 4.8 | 11.3 | 0.00 | 0.00 | 0.00 | 1 | 1006.6 |
| 20260506031235 | 24 | 184 | 3.2 | 11.3 | 0.00 | 0.00 | 0.00 | 1 | 1006.5 |
| 20260506030738 | 24 | 202 | 4.8 | 16.1 | 0.00 | 0.00 | 0.00 | 1 | 1006.1 |
| 20260506030734 | 24 | 161 | 3.2 | 11.3 | 0.00 | 0.00 | 0.00 | 1 | 1006.3 |
| 20260506025737 | 25 | 161 | 4.8 | 12.9 | 0.00 | 0.00 | 0.00 | 1 | 1005.8 |
| 20260506025733 | 25 | 157 | 4.8 | 16.1 | 0.00 | 0.00 | 0.00 | 1 | 1005.8 |
| 20260506024733 | 25 | 178 | 4.8 | 12.9 | 0.00 | 0.00 | 0.00 | 1 | 1005.8 |
| 20260506024234 | 25 | 186 | 4.8 | 11.3 | 0.00 | 0.00 | 0.00 | 1 | 1005.7 |
| 20260506023738 | 25 | 188 | 4.8 | 12.9 | 0.00 | 0.00 | 0.00 | 1 | 1005.5 |
| 20260506023734 | 25 | 168 | 4.8 | 12.9 | 0.00 | 0.00 | 0.00 | 1 | 1005.5 |
| 20260506022734 | 25 | 193 | 4.8 | 11.3 | 0.00 | 0.00 | 0.00 | 1 | 1005.5 |
| 20260506022232 | 25 | 153 | 4.8 | 9.7 | 0.00 | 0.00 | 0.00 | 1 | 1005.4 |
| 20260506021732 | 25 | 161 | 4.8 | 16.1 | 0.00 | 0.00 | 0.00 | 1 | 1005.3 |
| 20260506021231 | 25 | 192 | 6.4 | 17.7 | 0.00 | 0.00 | 0.00 | 1 | 1005.2 |
| 20260506020734 | 25 | 182 | 4.8 | 17.7 | 0.00 | 0.00 | 0.00 | 1 | 1005.3 |
| 20260506020730 | 25 | 144 | 4.8 | 14.5 | 0.00 | 0.00 | 0.00 | 1 | 1005.4 |
| 20260506015729 | 25 | 150 | 4.8 | 14.5 | 0.00 | 0.00 | 0.00 | 1 | 1005.3 |
| 20260506015230 | 25 | 180 | 4.8 | 14.5 | 0.00 | 0.00 | 0.00 | 1 | 1005.2 |
| 20260506014728 | 25 | 173 | 4.8 | 14.5 | 0.00 | 0.00 | 0.00 | 1 | 1005.1 |
| 20260506014228 | 25 | 147 | 4.8 | 14.5 | 0.00 | 0.00 | 0.00 | 1 | 1005.2 |
| 20260506013729 | 25 | 144 | 4.8 | 12.9 | 0.00 | 0.00 | 0.00 | 1 | 1005.1 |
| 20260506013227 | 25 | 144 | 4.8 | 12.9 | 0.00 | 0.00 | 0.00 | 1 | 1005.0 |
| 20260506012727 | 25 | 199 | 4.8 | 11.3 | 0.00 | 0.00 | 0.00 | 1 | 1005.1 |
| 20260506012225 | 26 | 162 | 4.8 | 17.7 | 0.00 | 0.00 | 0.00 | 1 | 1004.9 |
| 20260506011723 | 26 | 137 | 6.4 | 17.7 | 0.00 | 0.00 | 0.00 | 1 | 1004.9 |
| 20260506011222 | 26 | 163 | 4.8 | 12.9 | 0.00 | 0.00 | 0.00 | 1 | 1005.0 |
| 20260506010723 | 26 | 175 | 4.8 | 11.3 | 0.00 | 0.00 | 0.00 | 1 | 1005.0 |
| 20260506010225 | 26 | 150 | 6.4 | 14.5 | 0.00 | 0.00 | 0.00 | 1 | 1004.9 |
| 20260506010221 | 26 | 162 | 6.4 | 14.5 | 0.00 | 0.00 | 0.00 | 1 | 1004.9 |
| 20260506005221 | 26 | 152 | 4.8 | 16.1 | 0.00 | 0.00 | 0.00 | 3 | 1004.8 |
| 20260506004721 | 26 | 228 | 6.4 | 16.1 | 0.00 | 0.00 | 0.00 | 5 | 1004.8 |
| 20260506004221 | 26 | 142 | 6.4 | 16.1 | 0.00 | 0.00 | 0.00 | 6 | 1004.8 |
| 20260506003719 | 26 | 244 | 8.0 | 20.9 | 0.00 | 0.00 | 0.00 | 9 | 1004.6 |
| 20260506003219 | 27 | 144 | 6.4 | 20.9 | 0.00 | 0.00 | 0.00 | 12 | 1004.5 |
| 20260506002723 | 27 | 186 | 6.4 | 16.1 | 0.00 | 0.00 | 0.00 | 13 | 1004.5 |
| 20260506002719 | 27 | 190 | 6.4 | 16.1 | 0.00 | 0.00 | 0.00 | 15 | 1004.8 |
| 20260506001717 | 27 | 150 | 6.4 | 19.3 | 0.00 | 0.00 | 0.00 | 15 | 1004.8 |
| 20260506001221 | 27 | 172 | 8.0 | 20.9 | 0.00 | 0.00 | 0.00 | 17 | 1004.9 |
| 20260506001217 | 27 | 150 | 8.0 | 20.9 | 0.00 | 0.00 | 0.00 | 17 | 1004.8 |
| 20260506000219 | 27 | 140 | 6.4 | 22.5 | 0.00 | 0.00 | 0.00 | 17 | 1004.9 |
| 20260505235715 | 27 | 203 | 8.0 | 22.5 | 0.00 | 0.00 | 0.00 | 19 | 1004.8 |
| 20260505235215 | 27 | 149 | 8.0 | 22.5 | 0.00 | 0.00 | 0.00 | 21 | 1004.8 |
| 20260505234715 | 27 | 139 | 8.0 | 22.5 | 0.00 | 0.00 | 0.00 | 21 | 1004.6 |
| 20260505234215 | 28 | 190 | 6.4 | 19.3 | 0.00 | 0.00 | 0.00 | 22 | 1004.6 |
| 20260505233715 | 28 | 178 | 6.4 | 17.7 | 0.00 | 0.00 | 0.00 | 22 | 1004.6 |
| 20260505233215 | 28 | 181 | 8.0 | 20.9 | 0.00 | 0.00 | 0.00 | 22 | 1004.5 |
| 20260505232713 | 28 | 152 | 8.0 | 20.9 | 0.00 | 0.00 | 0.00 | 23 | 1004.5 |
| 20260505232216 | 28 | 143 | 6.4 | 20.9 | 0.00 | 0.00 | 0.00 | 23 | 1004.6 |
| 20260505232212 | 28 | 200 | 6.4 | 20.9 | 0.00 | 0.00 | 0.00 | 24 | 1004.6 |
| 20260505231211 | 28 | 190 | 6.4 | 20.9 | 0.00 | 0.00 | 0.00 | 24 | 1004.5 |
| 20260505230713 | 28 | 124 | 8.0 | 17.7 | 0.00 | 0.00 | 0.00 | 26 | 1004.3 |
| 20260505230709 | 28 | 198 | 8.0 | 20.9 | 0.00 | 0.00 | 0.00 | 25 | 1004.4 |
| 20260505225713 | 28 | 196 | 8.0 | 25.7 | 0.00 | 0.00 | 0.00 | 26 | 1004.4 |
| 20260505225709 | 28 | 197 | 8.0 | 25.7 | 0.00 | 0.00 | 0.00 | 25 | 1004.4 |
| 20260505225314 | 28 | 211 | 8.0 | 24.1 | 0.00 | 0.00 | 0.00 | 25 | 1004.5 |
| 20260505224207 | 28 | 155 | 8.0 | 24.1 | 0.00 | 0.00 | 0.00 | 25 | 1004.5 |
| 20260505223706 | 28 | 165 | 8.0 | 24.1 | 0.00 | 0.00 | 0.00 | 26 | 1004.6 |
| 20260505223207 | 28 | 128 | 9.7 | 24.1 | 0.00 | 0.00 | 0.00 | 25 | 1004.5 |
| 20260505222707 | 28 | 194 | 9.7 | 30.6 | 0.00 | 0.00 | 0.00 | 25 | 1004.4 |
| 20260505222209 | 28 | 163 | 9.7 | 30.6 | 0.00 | 0.00 | 0.00 | 27 | 1004.4 |
| 20260505222205 | 28 | 213 | 9.7 | 25.7 | 0.00 | 0.00 | 0.00 | 26 | 1004.3 |
| 20260505221205 | 28 | 209 | 8.0 | 25.7 | 0.00 | 0.00 | 0.00 | 26 | 1004.3 |
| 20260505220705 | 28 | 163 | 8.0 | 20.9 | 0.00 | 0.00 | 0.00 | 25 | 1004.3 |
| 20260505220206 | 28 | 146 | 8.0 | 22.5 | 0.00 | 0.00 | 0.00 | 27 | 1004.5 |
| 20260505215705 | 28 | 167 | 6.4 | 22.5 | 0.00 | 0.00 | 0.00 | 28 | 1004.4 |
| 20260505215206 | 28 | 173 | 8.0 | 37.0 | 0.00 | 0.00 | 0.00 | 29 | 1004.4 |
| 20260505214705 | 28 | 153 | 8.0 | 37.0 | 0.00 | 0.00 | 0.00 | 31 | 1004.4 |
| 20260505214203 | 29 | 153 | 8.0 | 19.3 | 0.00 | 0.00 | 0.00 | 28 | 1004.5 |
| 20260505213703 | 28 | 178 | 8.0 | 25.7 | 0.00 | 0.00 | 0.00 | 30 | 1004.6 |
| 20260505213201 | 28 | 171 | 8.0 | 25.7 | 0.00 | 0.00 | 0.00 | 32 | 1004.8 |
| 20260505212659 | 29 | 212 | 8.0 | 22.5 | 0.00 | 0.00 | 0.00 | 32 | 1004.9 |
| 20260505212159 | 29 | 195 | 8.0 | 17.7 | 0.00 | 0.00 | 0.00 | 34 | 1005.0 |
| 20260505211703 | 29 | 192 | 6.4 | 22.5 | 0.00 | 0.00 | 0.00 | 33 | 1005.0 |
| 20260505211659 | 29 | 180 | 8.0 | 22.5 | 0.00 | 0.00 | 0.00 | 34 | 1005.0 |
| 20260505210657 | 29 | 213 | 8.0 | 20.9 | 0.00 | 0.00 | 0.00 | 33 | 1005.1 |
| 20260505210157 | 29 | 196 | 8.0 | 20.9 | 0.00 | 0.00 | 0.00 | 33 | 1005.2 |
| 20260505205658 | 29 | 192 | 8.0 | 17.7 | 0.00 | 0.00 | 0.00 | 33 | 1005.3 |
| 20260505205157 | 29 | 180 | 8.0 | 17.7 | 0.00 | 0.00 | 0.00 | 33 | 1005.4 |
| 20260505204657 | 29 | 182 | 8.0 | 19.3 | 0.00 | 0.00 | 0.00 | 34 | 1005.5 |
| 20260505204201 | 29 | 180 | 8.0 | 19.3 | 0.00 | 0.00 | 0.00 | 33 | 1005.6 |
| 20260505204157 | 29 | 238 | 8.0 | 19.3 | 0.00 | 0.00 | 0.00 | 32 | 1005.6 |
| 20260505203803 | 29 | 201 | 6.4 | 19.3 | 0.00 | 0.00 | 0.00 | 32 | 1005.6 |
| 20260505202657 | 29 | 155 | 6.4 | 24.1 | 0.00 | 0.00 | 0.00 | 30 | 1005.6 |
| 20260505202201 | 28 | 182 | 8.0 | 20.9 | 0.00 | 0.00 | 0.00 | 31 | 1005.5 |
| 20260505202156 | 29 | 210 | 8.0 | 24.1 | 0.00 | 0.00 | 0.00 | 31 | 1005.5 |
| 20260505201154 | 28 | 121 | 9.7 | 25.7 | 0.00 | 0.00 | 0.00 | 31 | 1005.5 |
| 20260505200655 | 28 | 207 | 9.7 | 25.7 | 0.00 | 0.00 | 0.00 | 30 | 1005.6 |
| 20260505200155 | 28 | 153 | 11.3 | 25.7 | 0.00 | 0.00 | 0.00 | 30 | 1005.6 |
| 20260505195654 | 28 | 194 | 9.7 | 25.7 | 0.00 | 0.00 | 0.00 | 30 | 1005.6 |
| 20260505195155 | 28 | 163 | 8.0 | 24.1 | 0.00 | 0.00 | 0.00 | 29 | 1005.8 |
| 20260505194654 | 28 | 171 | 9.7 | 24.1 | 0.00 | 0.00 | 0.00 | 30 | 1005.8 |
| 20260505194153 | 28 | 159 | 9.7 | 27.4 | 0.00 | 0.00 | 0.00 | 29 | 1005.7 |
| 20260505193653 | 28 | 194 | 9.7 | 27.4 | 0.00 | 0.00 | 0.00 | 28 | 1005.8 |
| 20260505193158 | 28 | 196 | 8.0 | 22.5 | 0.00 | 0.00 | 0.00 | 26 | 1005.9 |
| 20260505193153 | 28 | 160 | 9.7 | 22.5 | 0.00 | 0.00 | 0.00 | 28 | 1005.8 |
| 20260505192758 | 28 | 136 | 9.7 | 30.6 | 0.00 | 0.00 | 0.00 | 28 | 1005.8 |
| 20260505191651 | 28 | 157 | 9.7 | 30.6 | 0.00 | 0.00 | 0.00 | 27 | 1005.9 |
| 20260505191151 | 28 | 148 | 9.7 | 30.6 | 0.00 | 0.00 | 0.00 | 27 | 1005.9 |
| 20260505190650 | 28 | 237 | 11.3 | 30.6 | 0.00 | 0.00 | 0.00 | 26 | 1005.9 |
| 20260505190150 | 28 | 163 | 11.3 | 25.7 | 0.00 | 0.00 | 0.00 | 27 | 1005.9 |
| 20260505185651 | 28 | 209 | 9.7 | 25.7 | 0.00 | 0.00 | 0.00 | 27 | 1006.0 |
| 20260505185154 | 28 | 137 | 11.3 | 27.4 | 0.00 | 0.00 | 0.00 | 27 | 1006.1 |
| 20260505185150 | 28 | 189 | 11.3 | 27.4 | 0.00 | 0.00 | 0.00 | 23 | 1005.9 |
| 20260505184149 | 28 | 184 | 9.7 | 20.9 | 0.00 | 0.00 | 0.00 | 24 | 1006.2 |
| 20260505183649 | 28 | 186 | 9.7 | 22.5 | 0.00 | 0.00 | 0.00 | 25 | 1006.2 |
| 20260505183153 | 28 | 190 | 8.0 | 20.9 | 0.00 | 0.00 | 0.00 | 22 | 1006.4 |
| 20260505183148 | 28 | 105 | 9.7 | 22.5 | 0.00 | 0.00 | 0.00 | 26 | 1006.2 |
| 20260505182153 | 27 | 175 | 8.0 | 25.7 | 0.00 | 0.00 | 0.00 | 22 | 1006.6 |
| 20260505182149 | 28 | 211 | 8.0 | 25.7 | 0.00 | 0.00 | 0.00 | 23 | 1006.5 |
| 20260505181148 | 27 | 205 | 9.7 | 22.5 | 0.00 | 0.00 | 0.00 | 23 | 1006.6 |
| 20260505180648 | 27 | 166 | 8.0 | 22.5 | 0.00 | 0.00 | 0.00 | 22 | 1006.7 |
| 20260505180148 | 27 | 194 | 8.0 | 22.5 | 0.00 | 0.00 | 0.00 | 21 | 1006.9 |
| 20260505175649 | 27 | 148 | 9.7 | 22.5 | 0.00 | 0.00 | 0.00 | 20 | 1006.8 |
| 20260505175153 | 27 | 159 | 8.0 | 29.0 | 0.00 | 0.00 | 0.00 | 20 | 1006.9 |
| 20260505175149 | 27 | 161 | 9.7 | 19.3 | 0.00 | 0.00 | 0.00 | 19 | 1006.8 |
| 20260505174148 | 27 | 130 | 8.0 | 29.0 | 0.00 | 0.00 | 0.00 | 17 | 1007.0 |
| 20260505173644 | 27 | 178 | 8.0 | 19.3 | 0.00 | 0.00 | 0.00 | 18 | 1007.1 |
| 20260505173142 | 26 | 215 | 9.7 | 20.9 | 0.00 | 0.00 | 0.00 | 14 | 1007.1 |
| 20260505172641 | 26 | 244 | 9.7 | 20.9 | 0.00 | 0.00 | 0.00 | 14 | 1007.2 |
| 20260505172140 | 26 | 209 | 8.0 | 37.0 | 0.00 | 0.00 | 0.00 | 13 | 1007.3 |
| 20260505171639 | 26 | 165 | 6.4 | 37.0 | 0.00 | 0.00 | 0.00 | 9 | 1007.2 |
| 20260505171138 | 26 | 232 | 8.0 | 22.5 | 0.00 | 0.00 | 0.00 | 11 | 1007.3 |
| 20260505170641 | 26 | 178 | 8.0 | 22.5 | 0.00 | 0.00 | 0.00 | 11 | 1007.2 |
| 20260505170637 | 26 | 173 | 6.4 | 29.0 | 0.00 | 0.00 | 0.00 | 9 | 1007.2 |
| 20260505165636 | 25 | 205 | 8.0 | 29.0 | 0.00 | 0.00 | 0.00 | 5 | 1007.1 |
| 20260505165136 | 25 | 175 | 8.0 | 29.0 | 0.00 | 0.00 | 0.00 | 4 | 1007.1 |
| 20260505164637 | 25 | 227 | 8.0 | 20.9 | 0.00 | 0.00 | 0.00 | 9 | 1007.0 |
| 20260505164141 | 25 | 197 | 6.4 | 24.1 | 0.00 | 0.00 | 0.00 | 5 | 1007.1 |
| 20260505164137 | 25 | 220 | 8.0 | 24.1 | 0.00 | 0.00 | 0.00 | 5 | 1007.1 |
| 20260505163134 | 25 | 161 | 8.0 | 24.1 | 0.00 | 0.00 | 0.00 | 1 | 1007.1 |
| 20260505162633 | 25 | 156 | 9.7 | 27.4 | 0.00 | 0.00 | 0.00 | 1 | 1007.1 |
| 20260505162132 | 25 | 165 | 9.7 | 27.4 | 0.00 | 0.00 | 0.00 | 1 | 1007.2 |
| 20260505161633 | 24 | 178 | 8.0 | 24.1 | 0.00 | 0.00 | 0.00 | 1 | 1007.1 |
| 20260505161132 | 24 | 182 | 8.0 | 27.4 | 0.00 | 0.00 | 0.00 | 1 | 1007.1 |
| 20260505160632 | 24 | 183 | 8.0 | 27.4 | 0.00 | 0.00 | 0.00 | 1 | 1007.1 |
| 20260505160132 | 24 | 253 | 9.7 | 24.1 | 0.00 | 0.00 | 0.00 | 1 | 1007.1 |
| 20260505153130 | 23 | 196 | 8.0 | 25.7 | 0.00 | 0.00 | 0.00 | 1 | 1007.2 |
| 20260505152628 | 23 | 239 | 6.4 | 19.3 | 0.00 | 0.00 | 0.00 | 1 | 1007.3 |
| 20260505152128 | 23 | 182 | 6.4 | 20.9 | 0.00 | 0.00 | 0.00 | 1 | 1007.3 |
| 20260505151630 | 23 | 193 | 8.0 | 22.5 | 0.00 | 0.00 | 0.00 | 1 | 1007.4 |
| 20260505151626 | 23 | 190 | 8.0 | 22.5 | 0.00 | 0.00 | 0.00 | 1 | 1007.3 |
| 20260505150627 | 23 | 197 | 8.0 | 19.3 | 0.00 | 0.00 | 0.00 | 1 | 1007.3 |
| 20260505150126 | 23 | 161 | 6.4 | 19.3 | 0.00 | 0.00 | 0.00 | 1 | 1007.3 |
| 20260505140622 | 22 | 149 | 8.0 | 24.1 | 0.00 | 0.00 | 0.00 | 1 | 1006.8 |
| 20260505140122 | 22 | 190 | 8.0 | 24.1 | 0.00 | 0.00 | 0.00 | 1 | 1006.8 |
| 20260505130122 | 21 | 167 | 8.0 | 19.3 | 0.00 | 0.00 | 0.00 | 1 | 1006.5 |
| 20260505124622 | 21 | 157 | 8.0 | 17.7 | 0.00 | 0.00 | 0.00 | 1 | 1006.2 |
| 20260505124122 | 21 | 165 | 6.4 | 16.1 | 0.00 | 0.00 | 0.00 | 1 | 1006.2 |
| 20260505123621 | 21 | 180 | 6.4 | 16.1 | 0.00 | 0.00 | 0.00 | 1 | 1006.1 |
| 20260505123121 | 21 | 177 | 6.4 | 14.5 | 0.00 | 0.00 | 0.00 | 1 | 1006.1 |
| 20260505122623 | 21 | 144 | 6.4 | 14.5 | 0.00 | 0.00 | 0.00 | 1 | 1006.0 |
| 20260505122619 | 21 | 175 | 6.4 | 14.5 | 0.00 | 0.00 | 0.00 | 1 | 1006.1 |
| 20260505121620 | 21 | 181 | 6.4 | 17.7 | 0.00 | 0.00 | 0.00 | 1 | 1005.9 |
| 20260505121125 | 21 | 163 | 6.4 | 16.1 | 0.00 | 0.00 | 0.00 | 1 | 1005.8 |
| 20260505121121 | 21 | 209 | 6.4 | 17.7 | 0.00 | 0.00 | 0.00 | 1 | 1005.8 |
| 20260505120119 | 21 | 178 | 6.4 | 16.1 | 0.00 | 0.00 | 0.00 | 1 | 1005.8 |
| 20260505115619 | 21 | 144 | 6.4 | 14.5 | 0.00 | 0.00 | 0.00 | 1 | 1005.6 |
| 20260505115117 | 21 | 207 | 6.4 | 14.5 | 0.00 | 0.00 | 0.00 | 1 | 1005.6 |
| 20260505114618 | 22 | 219 | 6.4 | 14.5 | 0.00 | 0.00 | 0.00 | 1 | 1005.7 |
| 20260505114120 | 22 | 186 | 6.4 | 17.7 | 0.00 | 0.00 | 0.00 | 1 | 1005.4 |
| 20260505114116 | 22 | 163 | 4.8 | 14.5 | 0.00 | 0.00 | 0.00 | 1 | 1005.6 |
| 20260505113116 | 21 | 161 | 6.4 | 17.7 | 0.00 | 0.00 | 0.00 | 1 | 1005.5 |
| 20260505112615 | 21 | 178 | 6.4 | 22.5 | 0.00 | 0.00 | 0.00 | 1 | 1005.5 |
| 20260505112115 | 21 | 196 | 8.0 | 22.5 | 0.00 | 0.00 | 0.00 | 1 | 1005.3 |
| 20260505111613 | 21 | 227 | 6.4 | 16.1 | 0.00 | 0.00 | 0.00 | 1 | 1005.2 |
| 20260505111116 | 21 | 171 | 8.0 | 19.3 | 0.00 | 0.00 | 0.00 | 1 | 1005.5 |
| 20260505111112 | 21 | 209 | 8.0 | 19.3 | 0.00 | 0.00 | 0.00 | 1 | 1005.5 |
| 20260505110112 | 21 | 199 | 8.0 | 24.1 | 0.00 | 0.00 | 0.00 | 1 | 1005.5 |
| 20260505102105 | 21 | 189 | 6.4 | 17.7 | 0.00 | 0.00 | 0.00 | 1 | 1005.6 |
| 20260505101604 | 21 | 157 | 8.0 | 20.9 | 0.00 | 0.00 | 0.00 | 1 | 1005.6 |
| 20260505101102 | 21 | 167 | 8.0 | 22.5 | 0.00 | 0.00 | 0.00 | 1 | 1005.6 |
| 20260505100602 | 21 | 161 | 8.0 | 22.5 | 0.00 | 0.00 | 0.00 | 1 | 1005.7 |
| 20260505100101 | 21 | 152 | 9.7 | 25.7 | 0.00 | 0.00 | 0.00 | 1 | 1005.7 |
| 20260505095559 | 21 | 159 | 9.7 | 25.7 | 0.00 | 0.00 | 0.00 | 1 | 1005.6 |
| 20260505095059 | 21 | 221 | 11.3 | 25.7 | 0.00 | 0.00 | 0.00 | 1 | 1005.5 |
| 20260505094558 | 21 | 206 | 11.3 | 25.7 | 0.00 | 0.00 | 0.00 | 1 | 1005.5 |
| 20260505094057 | 21 | 167 | 9.7 | 22.5 | 0.00 | 0.00 | 0.00 | 1 | 1005.6 |
| 20260505093601 | 21 | 156 | 9.7 | 25.7 | 0.00 | 0.00 | 0.00 | 1 | 1005.7 |
| 20260505093557 | 21 | 182 | 9.7 | 25.7 | 0.00 | 0.00 | 0.00 | 1 | 1005.7 |
| 20260505092557 | 21 | 144 | 9.7 | 25.7 | 0.00 | 0.00 | 0.00 | 1 | 1005.6 |
| 20260505092056 | 21 | 191 | 8.0 | 25.7 | 0.00 | 0.00 | 0.00 | 1 | 1005.7 |
| 20260505091555 | 21 | 178 | 6.4 | 17.7 | 0.00 | 0.00 | 0.00 | 1 | 1005.7 |
| 20260505091054 | 21 | 169 | 8.0 | 19.3 | 0.00 | 0.00 | 0.00 | 1 | 1005.7 |
| 20260505090555 | 21 | 204 | 9.7 | 20.9 | 0.00 | 0.00 | 0.00 | 1 | 1005.7 |
| 20260505090055 | 21 | 210 | 9.7 | 20.9 | 0.00 | 0.00 | 0.00 | 1 | 1005.7 |
| 20260505085555 | 21 | 196 | 8.0 | 20.9 | 0.00 | 0.00 | 0.00 | 1 | 1005.7 |
| 20260505085055 | 21 | 187 | 8.0 | 20.9 | 0.00 | 0.00 | 0.00 | 1 | 1005.8 |
| 20260505084554 | 21 | 186 | 9.7 | 24.1 | 0.00 | 0.00 | 0.00 | 1 | 1005.8 |
| 20260505084055 | 21 | 227 | 9.7 | 24.1 | 0.00 | 0.00 | 0.00 | 1 | 1005.7 |
| 20260505083555 | 21 | 218 | 9.7 | 24.1 | 0.00 | 0.00 | 0.00 | 1 | 1005.7 |
| 20260505083055 | 21 | 197 | 9.7 | 24.1 | 0.00 | 0.00 | 0.00 | 1 | 1005.8 |
| 20260505082555 | 21 | 168 | 9.7 | 24.1 | 0.00 | 0.00 | 0.00 | 1 | 1005.8 |
| 20260505082055 | 21 | 171 | 9.7 | 24.1 | 0.00 | 0.00 | 0.00 | 1 | 1005.8 |
| 20260505081556 | 21 | 177 | 9.7 | 24.1 | 0.00 | 0.00 | 0.00 | 1 | 1005.9 |
| 20260505081055 | 21 | 232 | 9.7 | 25.7 | 0.00 | 0.00 | 0.00 | 1 | 1006.1 |
| 20260505080555 | 21 | 240 | 9.7 | 25.7 | 0.00 | 0.00 | 0.00 | 1 | 1006.2 |
| 20260505080055 | 21 | 161 | 8.0 | 20.9 | 0.00 | 0.00 | 0.00 | 1 | 1006.3 |
| 20260505075555 | 21 | 195 | 8.0 | 22.5 | 0.00 | 0.00 | 0.00 | 1 | 1006.4 |
| 20260505075053 | 21 | 173 | 8.0 | 22.5 | 0.00 | 0.00 | 0.00 | 1 | 1006.5 |
| 20260505074553 | 21 | 187 | 9.7 | 24.1 | 0.00 | 0.00 | 0.00 | 1 | 1006.7 |
| 20260505074053 | 21 | 203 | 9.7 | 24.1 | 0.00 | 0.00 | 0.00 | 1 | 1006.7 |
| 20260505073553 | 21 | 194 | 9.7 | 25.7 | 0.00 | 0.00 | 0.00 | 1 | 1006.9 |
| 20260505073053 | 21 | 137 | 8.0 | 25.7 | 0.00 | 0.00 | 0.00 | 1 | 1007.0 |
| 20260505072557 | 21 | 177 | 8.0 | 20.9 | 0.00 | 0.00 | 0.00 | 1 | 1007.0 |
| 20260505072553 | 21 | 150 | 8.0 | 20.9 | 0.00 | 0.00 | 0.00 | 1 | 1006.9 |
| 20260505071553 | 21 | 159 | 8.0 | 19.3 | 0.00 | 0.00 | 0.00 | 1 | 1007.1 |
| 20260505071053 | 21 | 183 | 6.4 | 19.3 | 0.00 | 0.00 | 0.00 | 1 | 1007.2 |